Wind_Speed
2 3 3 2 3 1 1 2 1 1 0 1 1 1 1 2 2 4 4 3 3 1 1 2 3 2 3 6 7 8 7 3 1 1 2 3 9 11 13 19 22 21 21 21 22 24 23 23 23 23 23 23 24 24 24 24 24 24 23 22 21 21 21 21 20 20 21 20 21 22 23 22 21 21 22 23 23 23 23 23 22 22 21 19 20 22 22 22 22 22 22 21 20 19 19 18 18
3 3 3 3 4 1 1 1 1 1 1 2 2 2 1 1 1 4 5 4 3 3 3 4 6 6 5 8 8 6 8 6 2 2 4 8 12 10 15 21 21 20 21 21 22 23 22 22 24 23 23 23 24 24 24 23 22 21 20 20 20 20 20 21 20 19 20 21 20 21 22 21 20 21 22 23 24 24 23 22 22 22 21 19 20 21 21 21 21 20 19 19 17 17 17 17 17
3 3 2 1 3 2 1 0 1 1 2 2 2 3 1 2 3 3 4 4 3 1 2 1 5 5 2 7 5 3 5 5 4 5 6 13 13 10 16 19 20 20 19 20 20 22 21 22 24 23 24 24 24 24 23 21 20 19 19 19 20 19 19 19 20 20 21 21 20 20 20 20 20 21 21 22 23 24 23 21 21 21 20 20 20 19 19 19 18 18 18 17 16 16 16 15 15
3 3 3 1 0 1 1 0 1 1 2 2 1 3 3 2 2 1 3 4 4 4 4 2 4 6 5 8 4 2 5 4 4 5 7 11 10 11 17 19 20 18 17 18 19 20 20 22 23 23 24 24 24 23 22 21 19 19 18 18 19 19 19 19 20 21 21 21 20 19 20 20 20 20 20 22 23 23 22 21 21 20 20 20 19 18 18 18 16 17 17 16 15 15 15 13 13
2 2 4 2 1 0 1 1 1 2 3 1 1 1 3 2 1 2 4 5 5 4 2 2 3 3 5 7 3 1 4 3 5 5 7 9 10 14 18 20 20 18 17 17 18 19 19 23 23 23 25 24 24 22 22 20 19 20 19 17 19 19 19 19 20 20 20 20 19 19 19 19 19 19 20 23 23 22 22 21 21 20 20 20 19 18 17 17 16 16 16 15 15 16 15 14 12
3 2 4 3 1 1 1 1 2 3 3 2 2 1 3 2 1 3 6 5 2 3 2 1 3 5 6 5 4 4 3 0 4 5 8 11 14 16 18 20 19 18 19 18 18 18 20 23 23 24 24 24 23 22 21 20 19 21 19 18 18 19 19 19 19 19 18 19 19 17 17 17 17 18 20 22 23 22 21 21 20 20 20 19 18 17 17 17 17 16 15 15 16 16 17 15 14
2 1 2 2 2 1 1 1 2 3 2 4 3 2 2 2 3 5 6 2 2 3 3 2 5 8 5 2 4 6 4 1 2 6 10 14 16 17 18 18 17 18 18 18 18 18 20 23 24 24 23 23 22 22 21 20 20 21 20 18 18 19 19 19 19 19 18 19 19 18 17 17 17 18 19 19 19 20 20 20 20 19 20 18 17 17 17 18 17 15 14 15 16 17 17 16 16
3 1 1 0 1 1 1 0 2 2 1 3 5 5 3 3 4 5 4 0 1 2 6 5 5 6 4 0 3 5 6 3 4 9 13 15 17 17 17 16 17 17 17 18 17 17 20 22 24 24 22 22 21 21 21 20 20 20 20 19 18 18 19 20 19 19 19 19 19 18 17 17 17 18 18 18 17 18 18 19 19 19 18 17 18 18 18 18 16 14 14 15 16 16 16 16 16
3 2 1 1 1 1 0 1 2 2 3 4 6 8 8 6 5 5 4 1 2 3 4 3 2 4 5 4 4 3 6 5 9 13 14 16 16 16 16 17 18 17 18 18 18 18 20 22 23 23 21 21 21 21 21 20 20 19 20 20 19 18 18 19 19 19 19 18 18 19 17 16 17 17 16 16 15 16 17 17 17 17 17 17 18 18 18 18 15 13 13 14 15 15 16 16 15
2 2 1 1 1 1 1 1 2 2 4 5 6 10 9 7 6 6 4 2 5 5 4 3 5 8 9 6 4 2 3 6 11 13 14 15 16 15 16 17 17 18 19 19 19 19 20 21 22 22 20 20 20 20 21 20 19 19 20 21 20 19 19 20 20 19 19 19 19 19 16 15 16 15 15 14 14 15 16 16 16 16 17 17 17 18 18 16 14 13 13 14 14 15 15 14 14
1 1 0 1 1 1 1 3 3 3 4 5 6 8 7 4 5 4 1 4 5 6 5 3 8 12 10 6 3 1 3 6 10 13 14 14 15 15 16 16 17 18 19 19 19 19 20 20 20 20 20 20 20 19 20 20 19 19 20 21 20 19 20 21 21 20 19 18 19 18 16 15 16 15 14 14 14 14 15 15 15 15 15 16 16 16 16 14 13 12 13 14 14 14 14 14 13
1 1 1 1 1 1 1 2 3 5 5 4 3 3 2 2 4 4 5 6 6 8 4 1 7 9 8 6 3 3 5 6 9 12 13 14 14 14 15 15 16 17 17 19 19 19 20 19 18 18 19 20 20 19 19 19 19 18 19 20 20 19 20 22 21 21 20 18 18 18 16 16 16 15 14 13 13 13 14 14 14 14 14 15 16 15 15 14 13 12 13 14 14 14 14 13 13
1 2 2 2 0 1 1 2 3 5 3 3 2 4 2 2 2 4 7 7 5 5 3 3 9 6 6 5 2 4 6 7 9 11 12 13 14 13 14 14 15 16 17 18 18 19 19 19 18 17 18 19 20 20 18 18 18 18 18 19 19 19 19 21 21 21 20 19 18 17 17 17 15 15 13 12 12 12 13 13 13 14 15 16 16 15 14 13 12 12 13 14 15 15 14 13 12
1 1 1 1 0 1 1 1 2 2 1 2 3 5 3 1 0 4 8 8 5 3 5 6 7 5 6 5 2 5 8 10 11 11 12 13 14 14 13 13 15 16 17 18 18 20 19 19 18 17 17 17 18 18 18 18 17 18 18 18 18 19 19 19 21 21 20 19 18 16 17 17 15 14 13 11 11 11 11 12 13 13 15 16 16 15 14 13 13 12 12 14 15 15 15 13 12
1 1 0 1 1 1 2 1 1 1 1 2 4 6 2 1 1 3 5 7 6 4 3 4 1 1 6 7 5 9 11 13 12 11 13 12 13 13 12 13 14 15 16 17 18 19 19 18 18 17 17 16 16 16 17 17 17 18 18 18 18 18 19 18 20 21 20 19 17 16 18 17 15 14 13 12 10 10 11 11 11 12 14 16 16 15 14 13 13 12 12 14 16 16 15 14 12
1 1 1 1 1 1 2 2 1 1 1 1 3 5 1 4 2 1 3 3 7 4 2 2 3 2 6 6 5 12 15 15 14 13 14 13 13 12 12 13 13 13 15 16 17 17 18 18 18 18 18 17 17 16 16 16 16 17 17 17 18 18 18 18 18 19 19 17 16 18 18 16 14 13 14 13 10 9 11 10 10 11 13 16 16 15 14 13 13 13 13 14 16 16 16 14 12
1 1 1 1 2 2 3 3 2 1 2 3 4 6 2 3 3 3 5 7 10 7 6 4 5 2 3 2 8 18 17 16 15 14 15 14 13 12 13 13 13 13 15 16 16 16 16 17 18 18 18 18 18 16 16 17 16 16 16 16 17 17 17 17 16 17 17 15 17 18 17 15 14 13 13 13 12 10 10 11 10 10 13 16 16 15 14 13 13 13 13 15 16 17 16 14 12
2 2 2 2 3 2 4 4 2 1 3 6 7 6 2 2 4 4 6 11 11 10 8 5 6 5 4 6 14 20 18 18 17 16 16 14 13 13 13 13 13 14 15 15 15 15 16 17 17 18 18 18 19 17 17 18 17 16 15 15 17 17 16 16 15 15 16 16 17 16 15 15 14 12 12 13 13 12 11 11 11 10 12 16 17 16 15 14 14 14 14 15 17 17 16 14 13
2 2 2 4 3 2 2 2 1 1 4 8 7 3 1 1 4 3 3 8 8 9 7 5 7 7 7 10 16 18 18 19 18 17 16 15 14 14 15 14 14 15 15 15 15 15 17 18 18 18 18 19 19 18 18 18 18 17 16 15 16 16 16 15 16 16 17 18 17 15 15 15 13 13 12 13 14 13 12 11 11 11 12 15 17 17 15 15 14 14 15 16 16 16 15 14 13
1 1 4 4 3 3 2 3 4 3 4 7 6 3 2 1 1 2 4 7 5 6 7 6 6 7 9 12 16 18 18 18 17 16 16 15 14 14 15 15 15 16 16 15 15 15 17 18 19 19 18 19 19 18 18 17 18 18 16 15 15 16 16 16 17 17 17 18 16 15 15 14 14 13 12 14 14 13 12 12 11 10 10 13 17 17 16 15 15 16 15 16 16 15 15 13 13
2 3 4 2 2 3 3 4 5 3 2 4 5 5 4 3 3 2 7 6 3 4 7 7 9 12 13 14 16 17 17 17 17 15 15 15 14 14 14 15 14 15 15 14 14 14 16 18 19 19 18 18 19 19 18 17 18 17 15 15 14 16 16 16 16 16 16 16 14 14 14 14 13 12 13 15 14 12 12 12 11 9 9 11 14 14 16 17 17 17 17 16 16 15 14 13 13
3 3 3 2 2 4 2 2 3 1 0 2 4 5 4 3 3 2 4 3 3 3 7 10 13 16 16 16 17 16 16 15 16 16 16 15 14 14 14 14 13 13 13 12 13 14 16 19 20 19 18 19 18 18 18 17 18 16 14 15 14 15 15 15 15 15 14 14 13 13 13 14 13 12 13 14 15 13 12 12 10 9 8 10 11 10 14 18 17 18 17 17 16 14 13 12 12
4 3 2 3 4 5 3 1 3 1 0 3 3 3 4 4 3 0 2 2 2 2 7 12 13 15 16 17 17 16 15 15 16 18 17 16 16 15 15 14 13 13 12 12 12 14 17 19 20 19 19 19 18 17 18 17 18 16 15 14 14 14 15 15 16 15 14 15 14 13 14 14 13 13 13 14 13 12 12 11 10 9 8 8 9 8 14 18 17 17 17 16 15 14 12 12 12
5 4 2 3 4 6 4 2 4 2 3 5 1 1 2 3 2 1 2 4 3 2 8 12 12 15 15 15 16 16 16 16 18 17 14 14 15 13 13 13 12 13 12 13 13 15 18 19 19 19 18 18 16 16 17 17 16 16 15 14 13 15 15 15 16 16 14 15 14 14 14 13 13 12 12 13 12 10 10 10 10 9 7 7 7 8 13 18 17 16 16 15 15 14 13 12 12
6 6 2 2 3 4 4 5 5 2 4 5 3 3 4 3 1 1 1 6 3 5 10 12 13 14 14 15 15 14 14 15 17 16 10 9 10 10 10 11 11 13 14 15 14 15 17 18 18 17 17 17 15 16 16 16 15 15 14 13 13 14 15 15 15 15 15 15 13 12 13 13 14 13 12 13 12 11 10 10 10 9 7 7 8 7 10 16 17 16 15 14 13 13 13 13 13
6 7 4 4 4 3 4 4 3 2 2 4 4 3 3 2 1 0 3 5 4 9 12 13 14 14 14 13 13 14 13 14 17 15 10 7 7 8 9 10 11 12 13 14 13 14 15 17 17 16 16 16 15 15 15 15 14 14 13 13 13 14 15 14 14 15 14 14 13 12 13 13 14 13 13 14 13 12 10 9 9 9 8 7 8 8 8 13 17 16 14 13 12 13 13 14 14
5 7 5 7 5 3 3 4 3 3 3 4 4 1 3 3 2 1 2 4 8 11 12 12 13 13 13 12 12 12 13 15 16 14 11 8 7 10 11 10 12 12 12 12 11 12 14 16 17 16 16 15 15 15 14 14 13 13 12 12 13 14 14 14 14 14 13 13 14 14 13 13 14 13 13 13 13 12 10 9 9 8 8 8 9 9 8 12 16 16 14 13 12 12 13 14 14
4 5 3 5 3 3 4 4 4 3 2 3 3 1 2 1 2 2 5 8 9 12 13 12 12 11 11 11 11 11 11 14 14 13 14 12 8 9 11 11 11 11 10 11 11 12 14 15 16 16 15 15 14 14 14 13 13 13 12 12 13 14 14 15 14 13 13 13 14 15 14 13 13 14 13 12 12 11 10 10 10 9 9 9 10 10 10 11 14 15 14 13 12 12 13 14 14
3 4 2 2 1 2 3 2 2 1 1 2 4 2 2 0 1 4 6 9 10 11 12 12 11 10 9 10 9 9 11 12 13 13 13 10 7 7 9 9 9 9 9 10 12 13 14 14 14 14 14 13 13 13 13 13 13 13 13 13 13 14 14 14 14 14 13 13 13 13 14 15 14 13 13 13 11 11 10 11 11 10 9 10 10 11 11 11 13 15 15 13 12 12 13 14 14
3 3 1 1 1 1 0 2 0 2 0 0 3 2 1 1 4 9 3 8 10 11 11 11 10 9 9 9 9 9 10 12 13 14 11 6 5 6 5 4 5 6 7 8 10 11 12 13 12 12 13 12 12 13 12 13 12 12 13 12 13 13 13 13 14 13 12 12 12 12 14 15 15 14 13 13 12 12 12 12 12 10 10 10 11 12 12 12 13 14 14 12 12 13 13 14 15
2 3 1 0 2 1 1 2 1 3 1 2 3 2 2 4 10 12 4 5 7 9 10 11 10 9 9 9 9 10 10 11 12 13 11 7 5 2 1 2 3 4 5 6 7 7 9 10 10 11 12 12 12 12 12 11 10 10 11 11 12 13 13 13 13 13 12 12 12 13 14 15 15 14 13 13 13 13 13 12 12 11 10 10 12 14 13 13 14 14 14 12 11 12 12 13 13
1 3 3 1 2 1 2 1 1 1 2 2 2 1 3 6 13 13 6 2 5 6 8 9 9 9 9 8 9 9 9 10 11 10 9 8 5 3 3 3 3 4 4 4 4 4 5 6 7 8 9 11 11 11 12 12 11 10 10 11 12 12 12 13 14 13 13 12 12 13 14 14 14 15 15 16 15 15 14 13 12 12 11 10 12 14 15 14 14 14 14 13 12 11 11 13 12
1 1 3 2 3 2 2 2 1 1 2 2 2 1 3 5 12 13 9 2 4 5 7 8 8 8 7 7 8 8 8 9 8 7 6 6 6 5 3 3 3 3 3 2 2 2 3 5 6 7 7 9 9 9 11 13 13 11 11 11 11 12 13 13 13 13 13 13 14 14 12 13 14 15 18 18 17 17 15 15 16 14 13 13 13 15 15 15 15 15 15 14 14 12 11 13 12
1 0 2 1 2 2 1 2 2 1 1 3 5 6 4 6 10 12 12 5 3 6 7 8 7 7 6 6 7 8 7 6 4 4 5 6 6 6 4 3 3 3 3 2 1 1 3 4 6 7 7 7 6 7 9 10 11 11 12 12 13 13 13 13 13 12 12 14 16 14 12 13 15 16 19 19 18 18 17 17 18 17 16 15 16 16 16 15 15 15 15 15 14 13 11 12 12
4 3 4 2 1 1 1 2 1 2 2 5 8 8 7 9 11 12 14 9 3 2 4 7 7 6 6 5 7 8 6 4 5 6 5 5 6 5 4 4 4 4 4 3 2 1 0 3 4 5 6 6 6 7 8 8 9 11 13 14 15 14 14 15 15 13 12 15 17 14 12 14 16 18 19 19 19 20 19 19 18 18 19 18 18 18 17 17 16 16 16 15 15 14 13 13 12
6 4 4 4 4 2 1 1 1 4 8 9 8 8 9 11 12 12 12 12 10 7 3 2 3 4 5 5 6 7 5 4 4 5 5 6 6 5 4 4 5 5 6 6 5 3 2 1 3 4 4 5 6 7 8 8 9 11 13 15 15 15 16 16 16 15 14 16 17 14 12 15 17 18 19 19 20 20 19 19 19 18 21 21 19 19 19 19 19 17 15 14 14 13 12 13 13
6 5 4 4 4 2 1 1 1 3 7 7 8 12 13 12 12 11 10 12 14 12 9 6 5 5 3 4 5 5 3 3 5 6 6 7 7 6 4 4 5 7 8 9 7 5 3 2 1 2 2 2 3 6 7 9 12 11 12 14 14 14 16 16 14 14 14 17 19 14 12 14 15 16 18 18 19 21 19 19 20 19 21 23 21 19 20 20 20 19 16 15 14 13 11 12 13
6 5 4 2 3 2 1 1 3 2 5 4 7 14 14 11 11 11 11 14 15 13 11 10 10 9 7 6 6 3 1 2 5 6 7 7 7 6 4 5 7 8 9 10 8 5 3 3 3 3 2 1 1 4 6 9 12 12 11 11 11 11 13 13 13 12 12 16 20 16 13 15 16 16 17 18 19 21 19 17 19 21 23 26 22 20 20 20 19 19 19 18 15 15 12 11 14
4 3 3 2 2 1 1 3 3 2 5 5 8 14 12 10 11 12 13 14 13 12 12 12 12 12 10 9 8 6 4 3 4 5 6 7 7 7 6 7 8 9 10 10 9 6 5 4 3 3 2 0 1 2 5 8 10 11 12 11 11 11 11 11 11 10 10 13 19 18 15 15 18 18 16 17 20 20 18 17 20 22 25 27 24 21 20 19 19 19 20 19 15 14 12 12 15
3 3 3 3 1 1 2 4 2 3 5 8 12 13 9 9 10 12 14 12 11 12 14 14 13 13 13 11 10 9 7 6 6 6 6 7 8 8 8 9 10 11 11 11 9 8 7 7 6 4 1 1 1 0 2 6 8 10 12 12 12 12 10 9 8 8 10 12 16 19 18 16 18 18 13 13 18 19 18 19 21 22 24 26 26 24 20 18 19 19 19 19 17 14 12 14 18
2 3 4 4 2 2 2 4 2 5 5 6 10 9 5 8 9 10 11 10 12 12 14 15 14 13 13 13 13 11 10 8 8 7 7 8 9 10 10 10 11 12 12 11 10 10 9 9 9 8 7 4 1 3 4 5 7 9 11 10 10 10 8 8 10 11 13 14 14 17 17 16 17 16 11 10 15 17 17 19 22 22 22 23 24 24 21 18 19 18 17 18 18 15 14 15 18
3 4 5 5 5 3 2 5 6 5 4 4 1 3 3 6 8 8 8 9 11 12 14 15 13 13 12 12 13 13 12 11 11 11 10 11 11 11 12 12 11 11 11 10 12 13 12 11 10 8 8 8 6 6 6 5 7 10 11 11 11 11 11 14 16 16 15 14 16 17 17 14 14 14 11 10 12 15 16 17 18 19 19 20 22 22 21 19 19 18 18 18 17 18 18 16 17
3 4 6 4 4 4 3 4 4 3 4 2 1 1 3 3 5 7 6 9 11 12 15 14 12 12 11 11 11 12 13 13 13 14 15 16 16 16 16 17 16 14 13 12 14 15 14 13 13 11 9 8 5 5 5 5 6 8 10 10 11 12 11 13 13 12 12 14 16 17 17 16 14 13 12 12 12 14 16 16 14 15 16 18 19 18 18 19 18 19 18 18 18 20 20 18 18
3 3 7 8 6 6 5 3 3 1 2 3 1 0 4 4 3 5 4 8 11 12 14 13 11 12 11 12 12 12 13 12 12 13 15 18 19 19 18 19 19 18 17 16 15 14 13 12 12 12 10 9 6 5 6 7 7 6 8 10 12 12 9 8 8 9 13 16 17 18 18 18 15 13 12 11 11 12 15 14 11 13 16 17 17 15 16 17 18 18 16 16 19 21 21 19 19
2 3 7 7 5 5 5 3 2 1 2 4 3 1 3 3 1 2 3 7 10 11 12 11 11 11 11 12 12 13 12 12 13 12 14 16 18 20 19 19 22 22 21 19 17 14 12 11 11 11 11 10 9 8 9 10 9 7 7 9 12 13 10 7 8 12 16 17 18 17 16 18 16 14 11 10 9 9 13 12 10 12 14 16 17 15 16 17 17 17 16 17 20 22 22 19 17
3 6 6 4 3 3 3 2 2 1 3 4 2 2 1 3 1 1 3 5 7 7 8 8 10 11 11 11 12 13 12 11 12 12 14 15 16 17 18 22 26 26 24 23 22 20 17 15 14 12 12 12 11 9 8 8 9 7 7 9 12 14 13 10 10 12 15 15 17 14 13 15 15 14 11 8 8 10 12 12 12 13 14 15 16 16 17 18 18 17 17 19 22 21 20 17 15
8 9 6 5 4 2 2 1 1 2 4 2 1 5 1 3 1 1 3 4 6 6 6 7 9 10 11 11 11 12 11 11 11 12 16 17 16 18 20 23 26 27 28 27 26 25 22 20 19 15 13 13 11 10 9 9 9 7 8 9 12 13 12 12 11 12 12 14 17 14 11 12 13 14 13 9 11 13 13 14 15 14 14 15 15 16 17 17 18 18 17 19 21 20 19 17 16
6 5 5 5 3 1 2 2 1 4 4 2 1 4 1 3 2 3 5 7 7 6 6 7 9 10 10 10 10 11 10 10 11 11 14 17 19 22 23 24 24 25 28 28 26 25 23 23 22 20 18 17 14 12 11 11 11 10 9 9 10 11 11 12 12 12 12 14 17 14 10 11 12 14 13 11 14 14 12 15 16 14 15 17 16 15 14 14 17 17 16 17 17 18 19 18 17
3 4 7 7 4 3 4 3 3 4 2 2 2 3 3 4 4 7 8 8 8 7 7 7 8 8 9 9 10 9 9 10 10 10 11 14 17 19 20 21 22 23 25 25 23 23 23 23 23 23 22 21 18 15 13 12 12 12 12 11 11 11 10 10 12 15 17 17 18 17 13 11 12 13 13 13 16 14 12 15 16 15 15 15 15 15 16 16 18 17 16 16 15 15 17 17 17
5 6 8 7 5 6 5 3 2 2 1 2 3 3 3 5 5 8 10 9 8 8 7 7 7 8 8 9 9 9 10 10 9 9 10 11 14 16 16 16 18 19 21 22 21 22 22 22 22 24 24 22 20 18 16 14 13 12 12 12 12 13 11 11 14 19 22 19 17 18 16 12 11 11 12 15 16 13 13 15 17 16 15 14 15 18 19 18 17 17 16 16 14 13 14 15 15
4 3 4 5 3 3 4 3 3 3 3 2 3 1 4 5 6 9 10 9 8 8 7 7 8 8 8 9 10 10 10 10 9 10 11 13 15 16 15 15 16 17 18 19 19 20 21 20 21 24 24 23 22 19 16 16 15 13 12 11 12 13 12 12 14 17 19 18 16 15 14 14 13 11 10 13 15 14 14 16 17 17 15 14 17 18 17 16 15 15 14 14 14 13 13 15 14
3 1 2 3 3 3 3 1 1 2 3 2 3 2 3 5 8 9 9 9 8 7 8 8 9 10 9 9 10 10 10 11 11 10 12 15 18 18 17 16 17 17 18 18 19 19 19 19 20 24 24 22 23 20 17 16 16 14 12 11 12 13 13 12 12 13 15 17 19 18 14 13 14 11 9 13 16 16 16 16 16 16 15 15 17 15 14 15 15 13 11 12 13 13 14 16 15
3 3 4 2 2 5 5 2 2 1 3 2 2 2 6 5 6 7 8 10 8 6 8 8 8 10 10 9 10 10 10 11 11 11 13 16 19 20 20 19 19 19 19 19 20 19 18 18 18 21 22 21 21 21 19 18 16 14 12 10 9 11 12 13 14 15 16 18 21 22 19 15 14 12 11 14 17 17 16 15 15 14 14 15 15 14 13 14 13 12 11 11 13 14 15 17 16
5 6 6 4 3 3 3 3 2 1 3 2 1 4 8 5 4 6 9 9 7 6 7 7 8 9 10 10 10 10 11 11 12 13 15 18 21 21 21 20 20 20 19 19 20 19 18 17 17 19 21 22 22 22 21 20 18 16 13 12 10 10 11 11 13 15 17 18 19 21 20 16 13 12 13 15 16 16 15 15 15 15 14 14 14 14 14 14 14 14 14 14 14 14 15 16 15
2 6 6 3 2 3 2 2 3 3 4 2 2 5 6 5 4 7 8 8 8 6 6 7 9 9 9 10 11 12 12 12 12 13 14 18 21 21 21 20 20 21 21 20 20 19 19 19 18 18 19 21 22 22 20 20 18 16 15 14 13 12 12 11 12 14 16 17 18 19 18 16 14 13 14 15 15 15 14 14 15 15 14 14 15 16 16 14 13 14 16 17 15 14 14 14 14
3 6 4 1 0 3 2 2 2 4 5 4 4 5 5 2 1 6 10 8 8 8 7 7 9 9 9 9 10 11 11 12 12 11 12 16 19 19 19 19 20 20 20 21 21 21 21 20 19 19 19 20 21 21 21 20 18 16 16 15 15 13 12 12 13 14 16 17 17 18 18 16 14 13 13 14 14 13 14 14 13 13 14 13 15 16 15 13 12 13 16 16 13 13 13 13 12
4 6 4 2 2 1 2 2 2 3 5 5 5 5 4 1 2 6 11 9 8 9 8 8 8 9 10 10 9 10 10 11 11 10 12 15 17 18 19 19 19 19 20 22 23 23 23 22 21 21 21 21 21 20 21 21 19 18 17 18 17 15 13 12 13 14 16 18 18 18 17 16 15 13 12 13 13 12 12 13 12 13 13 13 14 14 13 11 11 12 13 13 12 12 12 12 11
2 4 4 3 4 4 5 3 1 2 3 5 5 5 3 2 2 6 10 8 7 8 9 9 8 9 10 9 9 10 9 10 10 10 11 14 16 17 19 20 20 20 21 23 23 24 24 24 22 21 21 21 20 19 19 19 19 19 19 19 18 15 13 13 13 14 15 17 17 16 16 15 15 14 12 12 13 12 12 12 12 13 14 13 13 14 12 12 11 12 12 11 11 12 12 11 11
Wind_Direction
119 100 66 45 12 351 21 6 206 78 204 226 231 233 210 219 325 288 276 281 290 356 12 32 59 36 77 86 110 104 45 35 34 348 44 88 146 149 154 154 150 149 149 148 151 154 154 155 156 157 158 157 154 151 149 149 149 149 148 146 143 139 137 134 132 133 132 133 133 132 131 130 131 128 125 124 123 119 117 117 114 113 111 109 106 105 105 104 103 103 103 103 101 99 100 100 99
113 96 59 63 28 5 154 345 244 90 196 228 208 195 47 164 221 258 273 318 338 31 53 80 93 66 65 97 111 104 54 45 52 63 79 123 140 144 156 155 152 149 148 148 149 152 153 155 156 158 158 158 154 151 149 149 148 146 143 138 135 133 133 134 132 131 132 132 132 132 132 132 132 129 126 126 124 122 121 120 117 116 115 111 109 108 107 105 104 102 101 101 102 102 103 102 100
110 89 42 56 32 22 128 357 231 136 195 229 227 197 150 171 200 251 287 305 317 333 335 59 95 32 18 107 67 21 62 62 85 89 108 139 144 153 159 154 152 148 147 150 150 153 153 156 158 158 159 158 155 153 150 147 143 140 136 132 131 133 133 133 132 131 130 130 132 132 133 134 132 128 126 127 125 124 124 123 121 119 117 114 111 109 107 105 103 103 102 100 102 103 103 102 100
106 82 18 323 90 62 129 73 169 165 192 227 265 186 198 187 169 265 309 310 285 267 310 8 77 3 15 76 27 16 73 60 93 103 129 148 151 152 155 151 149 147 148 153 153 153 153 159 159 158 160 159 157 154 150 144 139 135 133 132 133 134 132 134 133 131 130 130 132 132 135 135 133 131 130 130 126 127 127 125 125 124 122 120 116 113 112 109 105 111 110 105 106 107 107 106 104
102 78 20 340 193 79 125 102 96 194 205 183 305 134 190 206 112 282 291 308 280 234 272 25 82 23 46 57 353 54 51 57 114 124 133 142 147 147 151 149 149 151 151 154 156 154 155 160 158 158 159 159 158 155 150 142 137 135 134 134 134 133 133 134 132 130 130 130 131 131 132 132 131 131 134 134 129 130 131 129 129 127 126 124 122 118 116 114 113 117 115 109 107 106 105 105 106
107 93 31 37 111 34 153 171 152 213 229 181 268 63 134 221 277 280 292 312 302 188 201 7 107 117 89 54 38 50 354 319 124 141 141 142 148 149 151 150 152 154 154 156 157 155 158 161 158 157 158 159 157 154 151 142 138 138 135 135 136 135 135 135 133 132 131 131 132 131 130 130 128 126 129 132 130 133 135 134 133 130 129 127 126 124 121 120 120 118 113 107 105 104 102 100 103
115 136 25 70 100 343 204 204 202 229 220 181 252 323 112 205 240 293 310 324 73 127 148 94 121 119 89 65 79 48 357 305 151 148 145 147 149 151 153 152 152 155 157 158 157 158 162 161 158 157 157 158 156 153 151 144 142 141 137 137 139 138 138 137 136 135 134 134 134 133 132 132 132 129 127 128 131 135 137 138 137 133 134 133 131 130 126 125 123 117 109 104 104 103 100 98 100
85 69 322 161 119 19 163 214 245 229 217 208 260 279 264 247 237 286 301 156 51 109 122 121 126 105 71 38 99 53 34 56 130 135 143 148 149 152 155 155 154 156 159 160 158 160 165 162 158 157 156 157 156 153 150 146 144 142 140 140 140 139 139 140 138 138 137 136 136 135 135 138 137 135 133 132 134 139 141 141 141 139 138 136 134 133 131 129 125 117 108 102 102 102 101 97 97
55 26 208 211 154 71 109 270 260 234 257 258 265 265 262 256 238 253 262 153 138 128 106 141 171 113 108 89 87 55 41 83 124 134 147 150 153 154 157 161 159 159 161 162 160 160 165 163 159 156 156 157 157 154 151 148 145 144 144 143 142 141 141 141 142 142 140 140 140 137 139 144 141 137 136 133 134 141 145 145 145 143 140 138 137 136 134 132 128 119 108 101 101 102 102 98 96
40 16 159 132 159 212 232 246 259 241 254 271 281 269 266 255 224 238 260 134 127 118 92 92 101 121 125 101 97 60 55 120 134 139 149 152 156 158 161 166 164 163 163 163 160 160 165 164 160 157 156 156 157 156 152 149 147 147 147 146 146 146 146 145 146 145 143 144 143 143 146 147 144 139 136 135 133 136 142 146 147 145 142 140 139 138 137 136 131 120 108 100 100 103 103 101 99
136 51 118 170 170 216 236 241 253 274 276 291 287 269 274 258 209 218 206 118 112 121 133 100 100 119 117 106 123 87 107 146 148 146 151 156 159 163 164 166 167 166 163 162 160 160 164 165 161 157 155 154 155 154 153 152 150 150 150 149 148 149 151 149 149 148 147 148 148 150 151 149 147 141 136 137 132 130 135 141 144 144 143 141 141 142 143 141 133 122 109 102 102 106 107 106 102
178 110 169 181 190 208 236 255 274 295 292 310 307 312 348 221 185 163 137 120 125 133 144 150 136 130 109 115 147 140 148 160 162 155 153 156 160 165 165 164 166 164 162 161 160 160 162 162 159 157 156 154 154 152 153 155 152 151 152 151 149 150 153 153 152 151 151 152 153 156 155 151 149 142 138 139 134 130 131 137 144 145 146 146 147 148 148 144 135 124 112 106 107 111 114 111 106
176 137 159 160 220 182 176 263 286 300 313 4 321 332 359 202 164 133 130 114 117 128 87 85 139 128 96 124 145 161 175 174 167 159 154 156 162 165 163 163 163 162 163 161 161 161 162 161 158 160 160 156 155 154 155 156 154 153 154 153 151 151 154 156 155 154 156 157 159 161 157 152 150 141 138 141 136 133 132 136 145 150 153 152 152 153 151 144 136 125 115 112 114 118 121 116 108
161 153 187 155 79 161 200 270 279 294 2 14 322 321 326 242 161 141 126 105 67 76 91 90 126 114 109 136 174 189 189 177 167 158 155 155 160 163 158 160 163 162 163 163 163 163 162 163 162 162 162 159 156 157 158 158 156 155 156 155 153 152 155 159 158 156 159 162 163 163 156 152 149 142 142 145 138 138 138 137 145 154 158 156 155 155 153 144 135 126 118 119 122 124 126 120 108
164 149 90 142 125 195 214 243 294 15 49 352 350 332 328 74 215 151 99 97 77 62 107 97 116 129 151 166 195 193 182 170 165 158 156 154 155 157 154 158 162 161 163 163 163 165 164 162 164 163 163 161 158 159 160 160 159 158 158 156 155 154 155 159 161 161 162 165 165 159 156 153 151 148 146 144 138 143 145 140 142 153 160 159 159 158 154 145 135 127 123 126 127 129 128 119 109
129 143 81 151 181 198 195 194 216 39 3 296 350 327 15 66 15 59 24 101 112 69 36 34 337 338 170 190 189 169 166 163 162 159 155 149 147 151 154 160 163 162 163 165 166 169 167 165 167 166 166 166 161 160 159 160 163 161 159 159 159 159 157 160 163 165 165 165 162 157 156 155 154 152 147 143 141 148 150 148 144 150 160 161 161 160 156 146 135 129 128 131 131 131 129 119 110
136 168 133 158 200 206 190 192 187 86 323 306 353 345 23 64 32 76 62 85 106 80 46 30 359 12 170 200 148 149 156 160 159 159 154 148 149 154 157 160 164 167 169 170 171 171 171 170 171 169 169 169 165 162 159 162 165 163 163 163 163 164 162 161 162 165 164 162 160 159 158 156 158 157 153 147 143 146 152 154 150 150 158 162 163 162 157 147 137 132 132 133 133 132 129 122 114
181 167 164 199 198 201 192 192 184 132 322 325 343 346 337 109 105 127 97 85 92 82 65 55 53 70 99 115 136 146 156 159 161 163 158 155 158 161 164 165 166 170 173 174 175 175 175 174 176 173 170 171 169 166 164 165 167 165 167 168 167 167 164 160 161 163 162 162 163 164 164 161 163 164 161 153 145 148 155 159 157 152 156 161 164 163 159 150 140 137 136 136 137 135 133 130 123
183 122 189 217 192 205 212 188 184 226 310 325 330 342 307 171 133 171 146 118 114 93 85 95 94 98 113 131 145 153 160 162 169 169 163 165 167 166 166 169 170 171 173 174 177 179 179 178 180 179 174 172 171 170 169 167 169 169 170 171 170 168 165 163 165 166 166 169 169 170 170 169 168 168 168 158 150 150 155 163 162 156 155 160 164 164 161 155 145 141 140 141 141 140 139 137 132
183 159 217 225 203 245 240 215 232 240 294 322 327 344 337 289 169 239 158 142 140 121 127 131 134 145 142 152 159 161 165 168 174 173 171 172 171 171 171 172 174 174 175 175 176 179 182 183 183 183 180 176 175 174 172 170 172 173 172 174 172 169 169 169 170 171 173 174 174 174 174 175 174 172 171 162 155 153 156 164 164 156 153 159 162 162 161 157 149 144 144 145 146 147 147 144 139
161 191 226 190 137 261 233 209 241 249 264 308 319 328 350 347 304 231 158 144 139 165 178 170 166 165 159 165 169 168 170 174 179 179 179 177 173 175 178 177 176 177 177 176 175 177 182 185 187 186 184 181 180 177 175 175 175 174 173 176 174 172 175 174 174 175 176 178 179 178 176 180 181 175 171 168 164 160 159 163 166 162 158 164 165 162 162 158 151 148 147 147 149 152 153 150 145
164 204 250 200 164 272 266 179 229 255 214 297 315 323 347 328 296 210 170 139 105 172 202 183 169 167 168 170 170 172 174 179 184 186 189 183 176 177 179 178 177 177 177 179 178 179 183 187 192 190 187 187 184 180 179 179 179 176 175 176 175 176 177 176 178 180 180 181 183 184 182 186 187 182 177 175 173 168 167 166 169 171 169 173 173 170 166 162 157 153 151 151 149 152 156 155 151
204 204 256 232 211 256 283 138 213 175 286 285 300 321 327 314 326 238 262 355 66 232 195 173 167 168 167 166 169 175 180 187 190 193 196 190 184 181 177 175 177 177 178 182 180 184 186 188 195 193 190 189 186 184 182 183 184 182 179 178 178 178 179 179 183 185 184 186 188 191 191 190 188 187 186 182 180 177 176 174 175 178 175 175 177 178 173 169 165 160 156 154 150 152 158 159 156
220 214 230 236 211 238 261 264 244 212 245 258 247 30 294 292 343 226 255 15 8 231 171 159 159 162 164 167 173 179 184 192 196 199 199 194 192 185 176 174 177 177 180 184 183 191 191 190 197 195 192 191 187 186 185 187 189 187 184 182 182 182 183 186 189 190 190 190 192 194 196 195 190 188 190 187 186 190 191 186 184 185 181 180 180 182 179 176 173 168 164 158 153 155 159 160 160
207 219 221 239 218 239 264 273 269 247 242 241 205 172 207 232 332 210 27 27 35 135 145 148 152 160 169 176 180 183 189 196 202 206 204 197 192 182 178 178 180 182 186 188 188 195 193 191 198 198 195 192 189 188 188 191 192 191 188 185 188 188 189 192 194 195 195 196 196 198 198 198 195 194 194 192 193 199 204 197 191 193 192 189 183 183 183 181 179 175 170 165 158 156 158 159 162
197 205 211 245 255 290 284 277 274 266 245 218 207 161 157 199 163 152 27 43 108 133 141 149 157 166 174 182 185 186 192 198 204 209 208 194 183 185 190 188 188 191 192 192 192 197 195 194 198 199 198 195 192 192 192 194 194 195 193 191 193 193 195 198 199 199 199 200 200 200 201 201 201 198 198 200 201 205 210 204 195 198 202 199 190 188 186 182 183 181 177 171 162 159 158 159 163
173 189 213 243 265 310 270 267 272 280 259 217 230 139 118 165 187 162 79 115 142 140 145 157 166 173 178 184 187 191 196 201 207 210 208 199 189 194 197 196 196 198 195 192 195 198 196 197 198 198 200 197 195 195 195 197 197 198 198 199 200 200 202 202 202 201 201 204 206 206 205 205 206 204 204 205 206 209 212 210 204 200 204 205 198 196 192 184 185 186 183 178 169 163 160 161 165
155 168 192 238 263 258 241 271 283 289 262 196 197 156 84 122 201 132 123 148 153 147 152 166 176 180 184 186 188 195 200 204 209 212 212 208 200 195 196 199 197 197 197 194 196 198 198 200 199 199 200 199 199 197 196 198 197 200 202 205 207 207 210 208 205 206 207 210 212 211 209 211 212 212 214 213 213 214 212 216 215 207 204 206 204 201 197 187 185 187 186 184 178 169 163 163 167
151 163 196 234 309 254 234 295 297 279 266 177 171 159 49 240 212 53 111 153 155 156 162 170 180 186 190 189 193 201 202 204 208 215 219 211 202 203 203 205 199 197 201 199 199 201 201 202 202 204 202 199 200 199 199 202 200 201 203 208 212 211 214 214 211 212 213 213 214 213 213 215 217 216 220 221 222 223 220 222 221 215 208 209 211 205 201 195 187 187 187 185 180 173 165 162 167
147 140 231 266 340 252 308 4 41 185 228 220 207 184 76 266 354 16 63 164 159 163 173 176 182 189 193 194 200 208 204 204 210 218 224 217 210 217 218 220 214 211 209 202 203 204 204 206 208 212 209 203 204 204 206 208 205 204 208 213 216 216 218 218 217 217 217 218 216 215 217 220 223 224 223 223 226 227 226 225 224 221 214 213 217 210 203 199 191 188 189 187 181 174 167 165 171
145 139 145 12 204 183 36 7 172 182 98 355 253 211 75 21 4 3 9 176 173 175 183 186 187 192 196 199 207 214 210 210 218 223 227 235 238 242 308 307 271 247 231 212 208 208 207 210 214 216 212 208 211 215 220 221 215 211 215 219 219 220 220 220 221 221 221 223 221 220 221 223 229 231 230 229 229 229 227 226 226 223 219 218 219 213 205 201 196 192 192 188 179 174 170 168 173
81 165 162 107 199 191 30 44 184 197 76 36 272 186 98 35 6 1 18 160 195 197 202 200 197 200 200 200 212 223 218 219 226 228 232 251 277 330 1 335 310 279 259 237 222 220 223 223 225 224 216 211 214 219 227 234 235 231 231 231 227 226 224 224 223 223 225 227 227 226 223 224 230 234 237 236 235 234 229 227 227 221 217 217 215 210 207 204 200 197 196 195 187 176 175 175 176
31 217 165 134 190 183 61 84 5 303 119 64 349 71 106 23 358 2 22 70 193 202 213 216 213 213 212 208 220 233 229 227 233 240 255 278 300 324 345 329 311 293 279 260 218 204 230 234 229 229 226 221 223 225 230 237 241 243 244 242 239 234 232 231 226 225 227 230 233 232 226 227 231 233 237 237 238 240 233 229 229 220 212 209 207 207 209 209 205 202 200 202 200 187 179 181 180
128 174 129 117 187 170 145 119 34 337 154 92 63 71 67 16 360 8 16 15 190 201 211 216 222 221 222 222 230 244 245 244 270 307 306 303 297 298 308 314 317 307 302 301 284 190 217 233 232 234 235 232 229 231 239 244 248 252 253 252 251 247 245 242 236 229 227 232 237 234 229 231 233 233 236 235 237 242 238 236 233 222 213 207 204 205 211 214 210 208 206 203 202 195 186 187 185
153 157 149 133 148 156 149 140 25 359 56 88 88 77 51 26 16 18 18 25 79 166 218 214 224 229 229 233 243 257 272 301 335 342 328 315 302 296 301 320 346 352 352 346 340 5 263 254 249 243 240 241 240 245 253 255 256 260 260 259 255 252 253 252 250 247 239 237 238 234 231 234 235 236 239 238 237 241 239 239 235 222 217 212 206 205 209 216 214 211 210 202 196 196 198 195 189
154 153 151 137 142 164 196 163 23 62 70 68 81 79 53 34 23 24 28 36 53 50 35 216 241 253 246 247 251 266 298 332 352 6 358 332 315 315 325 346 9 20 22 14 4 15 25 304 266 255 243 239 243 250 254 256 260 259 256 255 251 249 251 250 253 254 249 245 243 236 231 238 240 240 245 244 240 242 240 238 237 225 218 217 212 208 207 213 216 212 204 197 192 191 196 195 189
126 120 122 122 143 154 194 182 42 91 85 60 75 80 59 43 35 30 37 44 46 43 39 31 12 1 337 303 277 274 304 14 36 33 11 341 324 329 342 4 20 25 31 30 17 11 32 39 334 293 268 226 245 253 247 250 255 250 244 243 241 243 246 247 249 252 250 252 252 241 230 241 246 245 248 247 242 243 241 237 236 228 220 220 219 216 212 210 214 214 202 193 192 186 183 187 185
119 127 121 129 167 148 159 59 30 100 116 97 91 80 61 50 49 41 44 49 46 41 40 37 27 23 16 0 346 333 58 52 29 23 10 351 339 339 355 23 30 27 28 29 18 0 5 6 4 8 3 59 211 243 238 246 250 247 245 241 240 245 249 249 249 249 247 256 264 259 247 253 256 251 246 245 246 245 242 234 232 231 224 220 218 215 213 209 211 214 202 191 189 189 189 185 177
123 136 135 158 169 147 139 67 40 71 114 135 109 83 68 58 57 53 50 52 51 48 49 47 40 36 29 21 15 19 48 37 11 18 16 2 350 350 12 34 38 34 26 20 12 356 341 332 344 12 1 272 197 232 245 252 251 249 250 250 255 257 261 263 257 263 263 264 280 283 273 272 269 260 249 247 254 252 245 236 233 233 226 219 217 213 210 205 204 206 204 197 186 183 189 193 188
128 152 169 166 146 175 152 95 33 34 93 142 119 92 74 61 58 57 55 55 55 53 54 52 49 47 40 36 32 30 36 31 23 26 23 15 8 10 24 39 44 45 39 30 24 9 348 335 334 340 346 186 181 284 278 254 248 247 246 246 251 253 264 272 267 287 279 263 283 291 284 285 279 266 253 246 256 255 243 240 239 235 228 222 220 216 208 202 201 203 208 206 193 179 177 192 200
165 183 186 170 169 216 126 105 100 63 83 149 123 98 65 44 48 54 54 57 55 51 55 52 48 48 44 42 37 33 35 35 34 32 30 27 26 29 33 42 51 52 50 43 38 31 14 355 339 326 317 302 285 360 332 262 236 229 227 228 232 231 225 221 231 258 257 241 258 276 280 287 281 268 256 247 256 253 238 240 244 239 233 226 221 216 206 201 204 203 207 208 201 194 184 187 198
183 215 208 192 176 183 118 124 139 114 138 208 142 112 78 37 43 50 44 55 55 49 52 49 44 42 41 42 37 33 32 31 33 33 35 32 28 35 37 39 44 42 42 41 39 34 27 21 8 353 333 311 300 321 314 263 232 222 214 209 212 215 201 204 228 253 253 240 244 256 263 268 263 259 263 260 257 251 235 232 239 239 235 226 219 214 203 200 203 200 203 203 197 198 193 188 194
183 207 196 183 153 161 166 156 160 149 158 172 322 206 130 73 50 39 34 59 58 50 51 45 41 40 38 42 37 35 33 29 30 29 31 30 26 30 32 33 31 26 26 26 26 23 19 19 12 7 2 342 323 318 296 260 246 238 232 231 233 234 220 217 234 244 246 250 249 249 256 257 247 246 262 262 248 248 242 231 229 230 226 219 213 206 200 204 208 204 206 208 204 205 203 196 194
177 191 173 165 166 180 182 185 193 178 127 101 48 199 124 113 56 17 24 66 59 49 49 43 41 40 38 42 38 37 36 31 33 30 29 29 26 27 25 24 25 22 24 22 20 18 15 17 13 5 359 347 336 316 299 290 283 268 253 252 256 258 252 239 236 232 241 251 248 242 250 257 250 247 257 251 235 241 246 235 220 220 219 213 208 205 207 214 216 207 207 218 220 218 216 209 200
199 174 164 164 175 176 168 195 201 136 183 153 116 52 112 111 35 14 43 66 59 49 47 41 38 38 36 39 37 37 37 33 35 31 28 26 24 23 18 18 22 22 23 23 21 20 15 12 13 10 2 352 340 320 305 299 290 279 257 245 253 265 267 246 231 240 249 251 244 235 242 252 249 245 246 239 225 228 239 235 219 216 213 207 206 210 217 218 216 209 202 212 219 217 218 215 205
154 133 122 108 91 92 122 198 182 139 221 179 139 300 130 111 351 67 78 57 57 53 48 39 34 34 34 36 35 33 33 32 33 31 28 24 21 19 14 16 21 22 21 22 22 21 19 15 9 7 6 3 356 342 326 308 290 273 251 241 249 263 265 245 229 240 247 250 246 233 232 245 246 243 238 235 228 218 229 234 223 216 211 206 207 214 223 221 217 215 210 214 218 217 216 211 205
131 128 110 99 87 69 90 77 95 192 218 156 28 305 212 136 256 217 96 58 59 63 51 34 28 28 28 31 34 31 30 28 27 28 25 21 19 18 15 14 14 15 17 20 21 18 16 15 10 6 2 360 357 350 343 326 305 280 256 245 248 254 255 243 234 238 239 243 246 237 228 233 240 244 239 236 230 216 217 219 211 213 215 213 211 214 223 224 218 217 217 220 218 215 217 212 210
140 137 134 135 112 111 135 92 195 210 201 114 10 308 17 127 187 153 105 77 67 64 52 37 28 24 23 27 32 30 29 27 25 27 22 16 16 15 13 10 7 8 12 14 15 14 14 13 9 7 3 360 356 347 340 331 319 305 285 269 258 251 244 240 244 251 248 245 246 243 234 226 231 241 236 234 235 223 214 209 202 207 218 221 223 221 223 223 219 216 216 219 216 216 223 220 215
180 153 158 165 157 166 175 174 191 202 185 75 325 303 54 90 129 126 104 84 76 71 62 50 37 30 27 27 30 29 28 28 26 26 22 18 18 14 11 8 4 4 6 7 9 12 13 11 10 9 4 1 359 351 342 332 325 321 310 295 282 272 259 246 248 256 252 247 248 251 250 234 226 230 227 232 239 229 216 207 198 203 214 221 227 228 228 226 220 217 216 218 216 216 222 220 216
185 170 176 176 164 169 172 168 174 183 130 66 327 304 114 117 127 118 105 91 85 81 71 61 52 44 39 34 32 33 30 29 29 25 23 20 17 16 13 8 4 3 1 2 5 8 11 10 9 11 8 3 1 356 348 339 331 328 322 309 296 292 284 261 248 251 251 248 253 260 262 252 236 230 227 234 237 226 212 201 196 205 212 212 223 229 232 233 228 222 219 220 219 218 220 221 221
176 168 178 173 169 170 159 157 159 151 125 72 352 345 136 141 128 114 110 96 80 70 57 50 46 41 41 37 30 30 28 28 28 25 23 20 16 15 13 9 6 3 0 0 1 4 9 11 9 13 12 7 3 357 347 340 334 331 329 319 307 301 293 271 256 259 261 261 264 267 268 264 253 238 226 233 234 222 208 198 198 209 210 213 228 231 225 227 230 228 225 223 224 225 227 228 227
182 151 147 175 177 130 107 78 87 117 117 66 16 51 94 111 112 112 111 98 81 69 55 41 36 33 33 33 26 22 22 22 23 22 21 20 18 16 14 10 7 3 0 359 359 359 2 4 8 13 13 8 6 1 349 340 335 332 331 323 313 305 295 281 268 264 261 258 258 256 257 259 255 243 230 233 233 225 212 201 202 209 209 218 233 230 218 221 227 226 224 223 224 226 229 231 230
149 173 174 166 107 109 119 107 39 59 132 96 348 115 115 114 118 123 120 105 93 82 68 50 39 35 32 32 28 21 19 19 19 20 20 18 17 16 14 11 6 1 358 355 355 355 356 358 3 10 11 9 8 4 358 349 340 335 331 322 312 299 288 281 274 268 261 258 260 257 252 251 252 245 236 234 233 230 221 206 202 207 211 219 230 229 222 226 232 231 228 226 225 226 230 232 231
148 174 168 129 74 82 108 120 99 90 124 105 281 160 148 156 148 138 129 115 104 89 79 67 49 41 36 33 30 26 23 21 19 20 19 17 15 13 12 9 4 360 356 352 350 350 353 356 357 2 6 6 6 4 1 357 350 343 337 328 316 299 286 276 268 265 262 259 260 257 249 247 250 243 233 231 229 228 223 207 203 209 211 215 225 228 228 231 236 239 239 236 231 228 229 230 230
135 150 144 136 152 158 138 133 152 141 117 132 179 166 173 182 163 152 141 127 123 108 85 72 57 45 38 31 28 27 24 21 19 18 16 15 13 9 6 5 3 2 360 354 351 351 352 356 356 356 357 359 4 5 2 359 354 346 338 330 321 307 296 285 270 262 259 252 250 251 247 245 249 240 229 224 219 219 215 204 202 208 211 216 224 229 234 237 233 230 233 234 232 229 228 227 227
74 123 124 25 148 161 153 124 146 138 134 156 163 174 191 189 181 162 145 135 137 123 95 76 61 50 43 34 28 25 22 21 18 15 15 13 10 5 1 0 360 0 0 358 358 357 357 358 358 357 353 352 359 4 3 359 355 348 340 333 325 311 298 290 276 263 258 251 249 251 248 246 247 239 228 222 214 210 205 198 196 202 207 211 218 225 232 234 224 216 223 228 226 223 224 224 222
126 146 145 114 76 114 125 75 42 124 143 152 156 178 181 50 3 147 136 136 139 124 106 86 66 56 50 39 30 25 22 22 18 14 13 9 5 1 359 358 358 357 359 2 4 2 1 1 359 356 355 351 351 356 358 355 351 346 343 340 333 317 297 287 278 267 260 255 252 250 248 251 249 237 228 223 215 206 201 196 195 201 205 206 214 223 223 220 217 214 217 223 222 217 217 219 216
148 154 162 144 124 141 146 133 73 88 131 153 156 171 161 61 41 121 125 130 128 114 105 93 75 64 56 42 34 30 24 21 16 12 10 6 4 2 359 358 359 359 0 4 6 5 3 2 358 355 354 351 348 347 347 346 343 341 341 344 341 329 307 288 278 272 265 258 254 251 250 251 247 237 230 225 216 208 200 193 195 204 207 205 214 227 223 211 210 212 213 219 221 217 215 214 213
Height
788 789 788 788 787 787 789 789 799 805 806 813 813 808 801 796 796 795 790 786 785 781 778 778 778 778 780 781 783 787 789 791 792 796 796 793 792 794 795 795 796 797 799 800 802 803 805 806 807 808 808 809 809 811 812 813 814 814 815 816 816 817 818 819 820 821 822 823 825 826 827 829 829 830 830 830 830 830 830 831 832 833 834 834 835 836 836 837 837 838 838 839 839 839 840 840 841
789 789 788 789 788 788 793 793 805 813 811 814 811 805 798 796 798 793 789 787 786 783 779 779 778 780 780 778 780 784 789 792 792 791 792 792 793 795 795 796 797 798 799 801 802 804 805 806 807 808 809 809 810 811 813 814 815 816 817 817 818 819 820 821 822 822 823 825 827 828 829 830 831 831 831 831 831 831 832 832 833 834 835 836 836 837 838 838 839 839 840 840 841 841 841 841 842
789 790 789 789 789 789 794 795 807 818 814 813 805 800 799 796 794 790 788 787 785 783 781 779 778 782 780 781 783 786 792 792 791 790 792 793 794 795 796 796 798 799 800 802 803 804 806 806 807 808 809 810 811 812 814 815 816 818 819 820 821 822 822 823 824 824 825 827 828 829 830 832 832 832 832 832 832 833 833 834 835 835 836 837 838 838 839 840 840 841 841 842 842 842 842 842 843
789 790 790 789 790 791 797 801 809 814 813 815 804 795 798 794 789 788 786 785 783 782 783 781 783 784 781 787 789 790 794 793 791 791 793 794 794 795 796 797 799 801 802 803 804 805 806 806 808 809 810 811 812 814 815 816 818 820 821 822 823 824 824 825 825 826 827 828 830 831 832 833 833 834 833 833 834 834 835 835 836 837 837 838 839 839 840 841 841 842 842 843 843 843 843 843 844
789 790 790 788 793 795 800 810 816 813 806 808 799 792 796 791 789 789 785 783 782 783 784 783 787 787 784 789 790 792 795 793 792 791 792 794 794 795 796 798 799 800 802 803 804 805 806 806 808 809 811 812 813 815 816 818 819 821 822 823 824 825 826 826 827 828 829 830 831 832 833 834 835 835 835 834 835 836 836 837 837 838 838 839 840 840 841 841 842 842 843 843 844 844 844 844 845
790 790 790 788 794 796 802 812 816 811 798 798 795 789 793 791 790 790 785 783 782 783 783 784 787 788 790 792 789 792 794 792 792 791 792 793 794 795 796 797 799 800 801 803 804 805 806 807 808 810 812 813 814 816 817 819 820 822 823 824 825 826 827 828 828 829 830 831 833 834 835 836 836 836 836 836 836 837 837 838 838 838 839 840 840 841 841 842 842 843 844 844 844 844 845 845 845
790 791 792 792 797 798 805 812 811 809 798 796 795 789 791 791 790 789 786 784 783 783 783 785 783 787 796 794 791 792 791 791 790 791 792 793 795 795 797 798 800 801 802 803 805 806 807 808 809 811 812 813 815 816 817 819 821 822 823 825 826 827 828 829 830 831 832 833 834 835 837 837 838 838 838 838 838 838 838 839 839 839 840 840 841 841 842 842 843 844 844 845 845 845 845 846 846
790 792 795 796 803 805 811 814 810 807 800 796 794 790 789 789 789 788 787 785 786 785 784 786 782 791 799 793 794 794 790 792 790 791 793 793 795 796 798 799 800 802 803 804 805 807 808 810 811 812 813 814 815 816 818 819 821 822 824 825 826 828 828 830 831 832 833 834 835 836 838 838 839 839 839 839 839 839 840 840 840 840 841 841 841 842 842 842 843 844 845 846 846 846 846 847 847
790 793 797 799 806 811 814 814 809 805 802 796 793 789 787 786 787 786 785 785 786 786 786 786 783 792 799 795 796 793 791 793 791 792 793 794 795 796 798 799 800 801 803 804 806 807 809 811 811 813 814 814 816 817 818 819 821 822 824 825 826 828 829 830 831 832 833 835 836 837 839 839 840 840 840 839 840 840 841 841 842 842 842 843 843 843 843 843 844 845 846 846 847 847 847 847 848
792 794 798 802 807 814 815 813 807 803 799 794 791 787 784 784 785 784 784 785 785 786 788 784 783 791 797 798 797 793 793 794 792 793 793 795 796 797 798 799 800 801 802 804 805 807 809 811 812 813 814 815 817 818 819 820 821 822 824 825 826 828 829 830 831 833 834 835 837 838 839 840 840 840 840 840 840 841 841 842 843 843 844 844 844 844 844 844 845 846 847 847 848 848 848 848 848
795 796 798 805 811 815 814 809 804 799 795 793 789 782 780 781 783 784 784 785 785 786 787 784 789 792 795 800 798 794 794 794 793 793 794 795 796 797 798 799 800 801 802 803 805 808 809 812 813 814 815 817 818 819 820 821 822 823 824 825 826 828 829 830 832 833 835 836 837 838 839 840 841 841 841 841 841 842 842 843 843 844 844 845 845 846 846 846 846 846 847 848 848 849 849 849 849
797 800 799 808 813 812 812 810 804 799 794 792 786 779 781 781 782 783 783 785 784 786 785 784 789 789 796 802 797 795 794 794 794 794 794 796 797 798 798 799 801 802 803 805 807 808 810 812 814 816 816 817 818 820 821 822 823 824 825 825 826 827 829 830 832 834 835 837 838 839 840 841 841 842 842 842 842 843 843 844 844 845 845 846 846 847 847 847 848 848 848 849 849 850 850 850 850
797 801 800 807 813 811 812 811 806 802 794 791 787 782 782 781 781 781 781 784 783 786 785 782 784 786 797 801 796 795 794 794 794 795 796 797 798 799 799 801 801 803 804 806 808 809 811 813 815 816 817 817 818 820 821 822 823 824 825 826 827 828 829 830 832 834 836 837 838 839 840 841 842 843 843 843 843 844 844 844 845 846 846 846 847 848 848 849 849 849 849 849 850 851 851 851 851
795 799 799 808 816 813 811 808 804 804 795 789 788 784 782 781 781 779 778 784 786 786 785 781 782 788 798 801 799 796 792 793 794 795 797 797 798 799 800 801 802 804 805 806 808 810 811 813 815 816 817 818 819 820 821 822 823 824 825 826 827 828 829 831 832 834 835 837 838 839 840 841 842 843 844 844 844 845 845 845 845 846 847 847 848 848 849 850 850 850 850 850 850 851 852 852 852
794 798 800 807 814 812 809 806 804 804 796 789 788 785 783 782 780 779 778 784 789 784 782 782 781 787 793 796 796 791 790 793 794 796 797 798 799 800 801 802 803 805 806 808 809 811 812 813 815 816 817 818 819 820 821 822 823 824 825 826 827 828 830 831 833 834 835 836 837 838 840 841 842 843 844 845 845 845 845 846 846 846 847 848 848 849 850 850 851 851 851 851 851 852 853 853 853
794 796 802 807 812 812 808 806 806 804 795 788 787 785 784 782 779 781 779 779 786 784 784 786 783 784 786 786 786 785 789 792 794 796 797 799 800 801 802 803 804 806 808 809 810 812 813 814 814 816 817 818 820 820 822 823 824 825 826 827 828 829 830 831 833 834 836 837 837 838 839 840 842 843 844 845 845 846 846 846 846 847 847 848 849 849 850 851 851 852 852 852 852 853 853 854 854
793 795 805 809 811 811 805 803 802 799 792 787 787 785 786 785 780 780 778 777 785 788 789 789 784 782 783 782 782 784 789 792 794 796 797 799 800 802 803 804 805 806 808 810 811 812 813 814 814 815 817 818 819 820 822 823 824 825 826 827 828 829 830 832 833 834 836 837 838 838 839 840 842 843 844 845 845 846 846 846 846 847 847 848 849 850 851 852 852 852 852 853 853 854 854 855 855
795 800 808 809 809 805 798 797 796 795 792 788 787 787 787 786 784 780 780 785 789 792 792 790 787 785 784 784 784 786 790 792 794 795 797 799 799 801 803 804 806 807 808 810 811 812 813 814 815 816 816 817 819 820 821 823 824 825 827 828 829 830 831 832 833 834 836 837 838 839 839 840 841 842 843 844 845 846 846 847 847 847 847 848 849 850 851 852 852 852 852 853 853 854 855 855 856
797 805 807 804 803 799 794 794 794 794 792 790 788 788 787 785 784 781 784 791 790 794 797 793 792 790 787 787 787 789 791 793 794 795 797 798 798 800 802 804 805 807 808 809 811 812 813 814 815 816 817 818 818 820 821 823 824 826 827 828 829 830 831 832 833 835 836 837 838 839 840 841 841 842 843 844 845 846 846 847 847 847 848 848 849 850 851 851 852 853 853 853 854 854 855 856 857
797 803 805 799 797 796 794 794 793 792 792 791 788 787 786 783 783 781 784 790 789 793 796 795 795 792 790 789 788 790 792 793 795 796 797 798 799 800 802 803 805 806 808 809 810 811 812 813 814 816 817 818 818 820 821 823 824 826 827 828 830 831 832 833 834 835 836 837 838 839 840 841 842 842 843 845 845 846 847 848 848 849 849 849 850 851 851 852 852 853 853 853 854 855 855 856 857
797 799 799 796 797 796 791 791 790 790 792 791 788 786 785 783 783 782 783 787 789 790 788 788 789 789 789 789 789 790 792 793 795 796 797 798 800 801 803 804 805 807 808 809 809 810 811 812 814 816 817 818 819 820 821 823 824 826 827 828 830 831 832 833 834 835 836 837 838 839 840 841 842 843 843 844 845 846 847 848 849 850 851 851 851 852 852 852 853 853 853 854 854 855 855 856 857
796 796 794 793 797 795 788 789 790 790 791 789 788 786 784 783 783 784 782 783 786 784 782 781 782 783 785 786 788 791 792 793 794 796 797 798 800 801 803 805 806 807 808 809 809 810 811 812 814 816 817 818 819 820 822 823 824 826 827 829 830 831 832 833 835 835 836 837 838 839 840 840 841 842 843 844 845 846 847 848 849 850 851 852 852 852 853 853 853 854 854 854 854 855 855 856 857
795 795 793 792 793 792 788 789 789 789 791 790 788 786 784 783 784 786 784 782 782 780 778 778 779 781 782 785 788 790 791 792 793 794 795 797 799 801 803 804 806 807 808 809 810 811 811 812 814 816 817 819 820 821 822 823 825 826 827 829 830 831 832 834 835 835 836 837 838 839 839 840 841 842 843 844 845 846 847 848 849 850 851 852 852 852 853 853 854 854 854 854 855 855 856 856 857
794 794 792 791 790 790 788 788 788 790 790 788 786 787 786 784 785 785 783 782 782 779 777 778 780 782 784 786 788 789 791 792 793 794 796 798 799 801 803 804 806 806 807 808 809 810 811 813 814 816 818 819 821 822 823 824 825 826 828 829 830 831 832 833 834 835 836 837 838 838 839 840 840 842 843 844 845 846 847 848 849 850 851 852 852 852 853 854 854 854 855 855 855 856 856 857 858
793 793 791 789 788 788 787 787 787 788 788 786 786 788 786 784 784 783 783 784 783 780 779 780 782 784 786 787 789 790 791 793 793 795 797 799 800 802 803 804 805 806 807 808 809 810 812 814 815 817 819 820 821 822 823 825 826 827 828 830 831 832 832 833 834 835 836 836 837 838 838 839 840 841 843 844 845 846 847 848 849 850 851 851 852 853 853 854 855 855 855 856 856 856 856 857 858
789 788 789 787 787 786 786 785 784 786 786 784 785 786 785 785 784 784 785 786 784 782 782 783 784 786 787 788 789 791 792 793 793 795 797 799 800 802 803 804 805 806 807 808 810 812 813 815 817 818 820 821 822 823 824 825 827 828 829 830 831 832 833 833 834 835 835 836 837 837 838 838 839 840 842 843 844 846 847 847 849 849 850 851 851 853 854 854 855 855 856 856 856 856 857 857 858
784 786 787 786 787 787 785 784 783 784 783 782 782 784 785 784 785 785 787 788 785 785 786 787 787 787 788 788 790 791 792 793 794 796 797 799 800 801 803 804 805 806 808 810 811 813 814 815 817 818 819 820 822 823 824 826 827 828 829 830 831 832 832 833 834 834 835 836 836 837 837 838 839 840 841 843 844 845 847 847 848 849 850 850 851 852 853 854 855 855 856 856 856 857 857 858 858
783 784 786 786 786 786 784 782 783 783 780 780 781 782 783 783 783 783 787 788 787 788 789 789 789 789 789 790 791 792 792 793 795 796 796 798 799 800 802 803 805 807 809 810 811 813 814 815 816 818 819 821 822 824 825 826 827 828 829 830 831 832 832 833 834 834 835 835 835 836 837 838 838 840 841 842 843 845 846 847 847 848 849 850 851 852 852 853 854 855 855 856 856 856 857 858 859
782 783 785 786 784 783 783 782 784 783 780 778 778 783 786 784 783 783 787 788 788 790 791 790 790 790 791 791 792 792 792 794 795 795 795 797 799 800 802 804 806 808 809 810 811 813 814 816 817 817 819 821 822 824 825 826 827 828 829 830 831 832 832 833 834 834 835 835 835 836 836 837 838 839 840 841 842 844 845 845 846 847 848 849 850 850 851 853 854 854 855 855 856 856 856 857 859
783 784 785 786 788 786 783 783 785 783 781 778 779 789 792 786 786 788 790 790 789 792 792 791 791 791 792 792 793 793 793 794 794 794 796 797 799 801 804 806 807 809 810 810 811 813 815 816 817 818 820 821 823 824 825 826 827 828 828 829 830 831 832 833 833 834 835 835 835 835 835 836 837 838 839 840 841 842 843 844 845 846 847 848 849 849 850 852 853 854 854 855 856 856 856 857 858
785 786 789 793 795 790 783 784 786 782 782 780 780 792 796 791 792 792 792 793 793 795 794 792 791 791 792 793 793 793 793 794 794 796 797 798 801 803 806 808 809 809 810 811 813 815 816 817 818 819 820 822 824 824 826 827 827 828 828 829 830 831 832 832 833 833 834 834 834 834 835 836 836 837 838 839 840 841 842 843 844 844 845 846 847 848 849 851 852 853 854 855 855 856 856 857 858
789 790 796 800 797 791 785 785 786 783 782 782 783 793 796 795 798 796 794 795 796 797 797 794 793 792 793 794 794 793 794 795 795 797 799 801 803 806 808 809 809 810 811 813 814 816 818 819 820 820 821 823 824 825 827 828 828 828 829 830 831 831 831 832 832 832 833 834 833 833 834 835 836 837 837 838 839 840 841 842 842 843 844 845 846 847 848 849 850 852 853 854 854 855 856 856 857
793 792 797 801 796 793 790 785 786 784 782 783 784 792 800 801 802 798 796 796 797 798 799 797 795 795 795 796 796 794 795 796 797 800 802 804 806 807 808 809 809 810 811 813 814 816 818 819 820 821 822 823 825 826 827 827 828 828 829 830 831 831 831 831 831 832 832 833 833 833 834 835 835 835 835 836 837 838 840 841 841 841 842 843 844 845 846 848 849 850 852 853 853 854 855 856 856
796 794 797 803 799 796 794 788 786 784 783 786 787 796 809 811 806 802 799 798 798 798 798 798 797 797 797 798 798 796 797 799 801 804 804 805 805 806 807 808 809 810 811 813 814 815 817 819 820 821 822 823 825 826 827 827 828 828 829 829 830 830 831 832 832 832 832 832 832 832 834 834 834 834 833 834 835 836 838 839 839 841 841 842 842 843 845 847 848 849 850 851 852 853 854 855 855
795 795 794 801 802 799 797 791 788 785 784 789 793 804 815 813 808 806 802 799 798 798 797 798 798 797 798 799 799 799 801 803 804 804 804 804 805 806 807 808 809 810 811 813 814 815 817 819 820 821 822 824 824 825 826 827 827 827 828 829 829 830 831 832 832 833 832 831 830 831 833 833 833 832 831 832 834 835 836 837 838 839 839 840 840 841 843 845 846 848 849 849 851 852 852 853 854
788 791 790 794 796 796 795 790 790 790 792 800 804 811 818 816 813 809 806 803 802 802 800 799 800 799 799 800 800 801 804 805 804 804 804 804 805 806 808 809 810 811 812 813 814 815 817 818 820 821 822 823 824 824 825 825 825 825 826 827 828 830 830 831 831 832 833 831 829 830 832 833 833 832 832 832 833 833 834 835 836 837 838 838 839 839 840 842 844 846 846 848 849 850 851 852 853
786 790 791 795 794 792 791 790 792 791 800 815 815 816 821 819 817 812 809 808 807 808 807 805 804 803 802 802 801 802 804 806 804 804 805 804 806 807 809 810 811 812 813 815 816 816 818 818 819 820 821 822 823 824 824 824 824 824 824 825 826 828 829 829 829 831 833 831 828 829 831 833 833 833 833 833 833 833 833 834 835 836 836 836 837 838 839 840 842 843 844 846 847 848 850 851 852
786 788 791 797 795 791 790 792 795 789 800 820 817 816 824 822 818 815 810 810 812 814 813 811 809 807 807 806 804 803 804 805 804 805 805 805 807 808 810 811 812 813 813 815 817 817 818 818 818 819 820 821 822 823 824 824 824 824 824 825 826 827 828 828 829 830 832 831 828 828 830 831 831 831 833 834 833 832 832 832 834 834 834 834 835 837 838 838 840 842 843 843 845 847 848 851 852
786 789 791 793 793 793 793 796 797 790 798 817 815 817 827 823 818 815 812 813 815 815 814 813 812 810 810 809 807 805 805 805 805 806 806 807 808 809 810 812 813 813 813 814 816 816 817 818 818 818 818 819 820 821 822 822 822 823 823 824 825 827 828 828 829 830 832 831 829 828 829 830 830 828 830 831 830 829 829 830 831 831 831 831 833 835 836 837 838 840 842 842 844 846 848 851 852
789 790 790 792 795 794 793 798 801 795 798 809 809 815 824 821 817 815 813 814 815 814 814 812 812 813 813 812 809 808 808 808 808 808 808 808 809 810 811 812 813 813 813 814 815 816 817 817 817 817 817 817 817 818 819 819 820 820 821 822 823 825 826 828 828 828 829 828 825 824 826 829 829 826 826 826 824 825 826 827 827 827 828 829 831 833 834 835 836 839 841 842 842 844 846 849 851
794 791 787 790 793 790 791 799 802 800 803 803 800 809 822 824 822 820 815 814 816 816 815 815 814 815 814 813 812 812 811 810 810 810 809 810 810 811 812 813 813 813 813 814 815 816 817 817 817 817 818 817 817 816 817 817 817 818 819 820 821 821 822 823 822 820 820 820 819 817 818 822 824 824 825 824 821 822 824 825 826 826 826 827 829 832 833 835 836 837 840 840 841 842 845 848 850
796 792 786 785 786 787 792 797 798 804 810 805 799 809 826 829 827 826 820 818 821 819 818 820 820 820 818 818 818 816 815 813 813 812 812 812 812 812 813 813 813 813 814 815 816 817 817 817 817 817 817 817 817 816 816 816 816 816 817 818 818 818 818 817 814 812 814 817 816 813 812 813 816 819 821 822 822 822 824 824 825 825 825 827 828 830 832 835 836 835 837 838 840 842 845 847 848
794 788 782 784 785 786 791 792 794 802 807 806 803 806 824 832 829 829 823 821 823 821 822 825 825 825 823 823 823 821 821 819 818 817 816 816 815 815 815 815 815 815 816 816 816 817 817 817 817 817 817 816 816 816 815 815 815 816 816 815 815 815 815 815 813 812 812 813 814 814 813 811 813 815 817 819 821 823 823 824 825 825 825 827 828 830 832 834 835 835 836 837 839 841 842 844 845
789 782 780 786 786 787 790 788 790 798 801 805 805 800 814 832 831 828 823 822 825 824 826 829 829 830 828 826 826 825 825 825 823 823 822 821 820 819 819 818 817 816 816 816 816 817 817 817 817 816 816 816 815 815 815 815 815 815 815 814 814 814 814 815 815 814 812 810 811 813 813 811 811 812 814 817 820 823 823 824 825 825 826 827 829 830 831 832 833 834 836 836 837 839 839 840 842
783 781 782 784 783 785 788 785 789 800 800 802 806 802 813 833 831 824 822 822 827 829 831 833 833 833 832 830 829 828 829 828 828 827 826 825 824 823 822 820 819 817 817 817 817 818 817 817 816 816 815 815 814 814 813 813 813 812 813 813 813 813 813 813 812 811 810 808 808 808 809 808 808 808 811 815 818 821 823 823 824 825 826 827 829 830 830 830 832 833 834 835 836 838 838 839 840
780 784 786 785 788 790 791 789 789 798 801 800 809 809 814 833 834 824 825 827 830 833 833 834 835 835 835 834 832 831 831 831 831 831 830 829 828 826 824 821 819 819 818 819 818 817 817 817 816 815 815 814 814 813 812 812 811 810 810 810 810 809 810 811 809 807 808 808 807 807 807 807 807 807 809 814 816 818 821 823 823 824 825 827 828 829 829 830 831 832 833 834 835 836 838 839 840
779 783 785 787 792 792 793 795 792 798 804 805 818 817 809 828 838 829 830 834 833 834 835 836 837 837 837 836 834 834 834 834 833 833 832 831 830 827 825 823 821 820 820 819 818 818 817 817 816 815 814 814 813 812 811 810 810 809 809 809 808 807 808 809 807 807 807 808 808 807 807 807 807 807 810 812 812 813 816 819 820 822 824 826 828 829 829 830 831 832 832 833 834 835 836 838 839
778 778 781 788 794 794 795 799 799 804 807 809 821 819 806 823 839 834 833 836 835 837 839 840 840 840 840 838 837 837 837 837 836 835 834 832 830 828 826 825 823 821 820 820 820 819 818 817 816 815 814 812 812 811 810 809 808 808 808 807 806 805 805 806 807 808 809 809 808 807 805 805 806 807 809 810 808 808 812 814 817 820 822 824 826 827 828 829 830 831 831 832 833 833 834 836 838
779 776 780 789 799 804 805 805 806 806 807 813 821 817 815 828 835 833 835 838 838 840 841 842 843 843 843 841 840 840 840 839 839 837 837 836 834 833 831 829 827 825 823 823 822 821 820 818 817 815 813 812 811 810 809 809 808 807 807 806 805 804 804 805 805 806 807 807 806 805 804 804 804 805 807 807 805 806 808 811 814 817 819 821 822 824 826 827 828 829 830 831 832 832 833 834 835
778 776 778 786 798 809 816 817 815 810 809 817 818 815 824 835 834 833 838 839 838 840 840 842 843 843 843 843 841 842 842 841 841 840 839 839 838 837 835 833 831 829 827 825 824 822 821 820 817 815 813 812 810 809 808 807 807 807 807 806 804 804 803 803 802 801 802 804 804 803 803 804 805 805 806 806 805 805 806 808 811 815 817 819 819 821 823 824 825 828 829 830 830 831 832 832 833
776 773 772 780 787 796 808 811 810 810 812 815 817 819 826 832 835 836 835 836 837 838 839 840 841 841 842 843 842 843 843 842 842 842 841 841 840 838 837 835 834 832 830 828 826 824 823 821 819 816 814 812 810 809 807 806 806 806 806 805 803 802 802 801 801 801 802 803 802 802 803 805 805 805 805 805 805 804 804 806 809 812 815 817 818 820 821 822 824 826 827 828 829 830 830 831 832
780 775 775 779 775 781 804 814 810 809 811 819 826 829 829 831 836 837 834 836 839 840 841 841 841 842 842 844 845 844 844 844 843 843 843 842 840 839 837 836 835 833 831 829 827 825 824 822 820 817 814 813 811 809 808 806 805 805 805 804 803 801 800 800 800 800 799 798 797 798 799 802 804 804 804 804 804 804 804 805 807 810 813 815 816 819 821 822 823 825 825 826 827 828 829 829 830
778 778 777 777 770 776 799 817 820 810 810 830 839 835 834 836 839 839 836 838 841 842 844 844 845 845 845 846 848 848 847 847 846 845 844 843 841 839 838 836 835 834 832 830 828 826 825 823 821 818 816 814 812 810 808 806 805 804 804 804 802 801 799 799 798 797 796 795 794 794 796 799 801 803 803 802 802 802 803 804 806 808 811 813 815 817 819 821 823 823 824 825 826 826 827 828 829
770 774 771 772 775 777 785 804 819 814 817 838 842 833 834 835 838 842 840 841 845 845 845 847 847 847 848 849 849 850 850 849 848 846 845 844 842 840 839 838 837 835 833 831 829 827 826 824 822 820 817 815 813 811 809 807 805 803 802 802 801 800 799 797 796 795 796 795 794 794 795 798 799 801 801 800 800 800 801 802 803 805 808 811 813 815 817 819 820 821 823 824 824 824 825 825 827
758 759 761 768 777 782 786 799 809 813 831 844 838 834 832 827 832 839 841 843 846 846 846 847 848 849 850 850 850 851 850 849 848 847 846 845 844 842 841 839 837 835 834 832 830 828 826 824 822 820 818 815 813 811 808 807 805 802 801 800 800 799 798 797 795 793 793 794 793 793 794 796 798 799 799 799 798 798 799 800 801 803 807 809 811 813 814 815 816 817 819 821 821 821 822 823 824
756 756 761 767 771 776 783 792 792 804 833 842 835 836 832 826 830 833 838 844 844 844 847 847 848 850 852 853 853 852 852 851 850 849 849 848 846 844 842 840 838 836 835 833 830 828 826 825 823 821 819 816 813 811 808 806 804 802 800 798 798 797 797 796 794 793 792 791 791 791 792 794 795 797 798 797 796 796 797 797 799 802 805 807 809 810 811 812 813 815 817 818 818 818 819 820 821
760 762 767 771 776 777 781 793 796 802 823 831 832 836 833 832 834 832 836 844 842 843 846 847 850 852 853 855 855 855 854 854 854 853 852 850 848 846 843 841 839 837 835 833 831 829 827 826 824 822 819 816 813 811 808 806 803 801 799 797 796 795 795 794 794 793 791 790 790 790 791 792 793 794 796 796 795 795 795 796 798 801 804 805 805 806 808 809 810 812 814 815 816 816 817 818 819
760 760 763 768 775 774 780 799 806 803 809 815 821 828 833 838 839 835 840 844 843 845 846 850 853 853 855 857 857 858 858 857 858 856 854 852 850 848 845 842 841 839 837 835 833 831 829 828 826 824 821 818 815 812 810 807 804 801 799 797 795 794 793 793 792 792 791 790 789 789 789 790 791 793 794 794 794 793 793 794 796 800 802 803 802 802 803 805 806 808 811 812 814 814 815 816 817